Tracking 29528 objects as of 12-Sep-2024
HD Live streaming from Space Station
objects crossing your sky now

STARLINK-5424

Track STARLINK-5424 now!
10-day predictions
STARLINK-5424 is classified as:


NORAD ID: 54811
Int'l Code: 2022-175BF
Perigee: 545.9 km
Apogee: 547.7 km
Inclination: 53.2 °
Period: 95.4 minutes
Semi major axis: 6917 km
RCS: Unknown
Launch date: December 17, 2022
Source: United States (US)
Launch site: AIR FORCE EASTERN TEST RANGE (AFETR)
Your satellite tracking list
Your tracking list is empty




NASA's NSSDC Master Catalog

Two Line Element Set (TLE):
1 54811U 22175BF  24255.56037490  .00010672  00000-0  68714-3 0  9993
2 54811  53.2168 306.8573 0001298  94.5343 265.5797 15.08865705 95893
Source of the keplerian elements: AFSPC